Temperature
9 9 9 11 11 11 11 11 11 12 13 12 12 13 14 15 14 14 15 15 15 15 15 16 16 16 16 17 18 18 18 18 18 17 17 16 14 14 13 13 13 13 13 12
8 9 10 11 10 10 10 10 10 11 12 11 11 12 14 14 14 14 14 15 15 15 15 15 15 15 16 16 17 18 18 18 18 18 17 16 15 14 13 13 13 12 12 12
9 9 10 9 9 9 9 9 10 10 11 11 11 12 15 16 15 14 14 14 14 15 15 16 16 15 16 16 17 18 18 18 18 17 16 16 15 13 13 12 12 12 11 11
9 9 8 8 8 9 9 10 9 9 9 10 10 11 15 16 15 15 15 14 15 15 15 15 15 15 15 16 16 17 17 17 17 17 17 16 15 13 12 12 12 11 11 11
8 8 8 8 9 9 9 9 9 9 9 8 10 9 13 16 15 15 16 15 15 15 15 14 15 15 15 15 16 16 17 16 16 16 16 15 13 13 12 12 11 11 10 10
9 8 8 9 9 9 9 8 9 9 8 7 10 10 13 16 16 16 17 16 15 15 14 14 14 14 14 14 15 16 16 16 16 15 14 13 13 13 12 11 11 10 10 9
7 8 8 8 8 8 8 7 8 8 7 9 11 10 12 15 15 15 16 16 15 15 14 14 14 13 13 13 14 15 15 15 15 14 13 13 12 12 12 11 11 10 9 9
8 8 8 8 8 8 8 8 9 9 10 11 11 10 13 15 15 14 14 14 14 14 14 14 13 13 12 13 14 14 15 15 14 13 12 12 12 11 11 11 10 10 9 9
8 9 8 8 9 9 7 7 9 8 8 8 11 12 14 15 14 14 14 13 13 13 13 13 13 12 12 12 13 14 14 14 13 12 12 11 11 11 11 10 9 9 9 8
9 8 8 8 8 8 9 9 7 7 7 9 11 13 14 15 14 14 14 13 13 12 12 12 12 11 10 10 11 11 12 12 12 12 11 11 11 10 10 9 9 8 8 8
9 7 7 7 7 7 7 7 7 8 8 8 10 13 15 15 14 14 13 12 12 11 11 11 11 10 9 9 8 8 9 10 11 11 11 10 10 9 9 8 8 8 8 7
8 8 7 8 9 9 9 9 8 7 8 8 9 11 15 14 14 13 12 11 10 10 10 10 10 9 8 7 7 7 8 9 10 11 10 10 9 8 8 8 8 7 7 7
8 7 7 9 8 7 7 8 9 8 7 8 8 11 14 13 13 12 11 10 9 9 9 9 8 7 6 6 6 6 8 9 10 10 9 9 8 8 8 7 7 7 6 6
8 7 8 9 10 9 8 8 8 7 7 8 9 11 12 12 12 11 10 9 8 8 7 7 6 6 5 5 5 6 8 9 9 9 9 8 8 7 7 7 7 6 6 5
7 7 7 8 9 9 9 9 9 8 7 7 9 10 11 12 11 10 9 8 7 6 6 5 5 4 4 4 5 7 8 8 9 8 8 8 7 7 7 6 6 5 5 4
7 7 7 8 9 9 9 9 9 9 8 8 8 9 11 11 10 9 9 7 6 5 5 4 4 3 3 4 5 7 8 8 8 8 7 7 7 7 6 6 5 4 4 3
7 7 7 8 10 9 9 10 9 9 9 9 8 10 12 11 11 10 9 7 6 5 4 3 3 3 3 5 6 7 7 7 7 7 7 7 6 6 5 5 4 3 3 2
7 7 7 8 9 8 12 11 10 9 10 10 10 11 11 11 10 9 8 7 6 5 4 3 3 3 3 4 6 7 7 7 7 7 7 6 6 5 4 4 3 2 2 1
8 7 7 7 9 10 11 11 9 9 10 11 11 11 11 10 10 9 7 7 6 5 4 4 4 4 4 5 6 7 6 6 6 6 6 6 5 4 4 3 2 2 1 1
7 7 7 7 8 9 11 11 10 9 10 11 10 11 11 10 12 10 7 6 6 5 5 4 4 5 5 6 6 7 6 6 6 6 5 5 4 3 2 2 1 1 0 -0
6 6 6 7 8 10 12 10 10 10 11 11 10 10 9 10 9 7 6 6 5 5 5 5 5 5 6 6 6 6 6 6 6 5 4 4 3 2 2 1 0 0 -0 -1
8 8 7 8 8 10 12 10 11 11 10 9 8 8 7 6 5 6 6 5 5 5 5 5 6 6 6 6 6 6 6 5 5 4 3 3 2 1 1 0 -0 -1 -1 -1
9 10 10 10 11 12 10 10 10 9 8 8 7 6 6 5 4 5 5 5 5 5 5 5 6 6 5 5 6 6 5 4 4 3 2 2 1 0 -0 -0 -1 -1 -1 -2
9 9 9 9 10 11 10 10 9 8 7 7 6 6 5 5 4 4 4 4 4 4 4 4 5 5 4 4 5 5 5 4 3 2 2 1 0 -0 -1 -1 -1 -2 -2 -3
10 8 9 9 11 11 11 9 8 8 7 7 6 5 5 4 4 4 4 4 4 4 4 4 4 4 4 4 4 4 4 3 2 2 1 0 -0 -1 -1 -1 -2 -2 -3 -3
9 9 10 11 11 11 11 8 8 7 7 6 5 4 4 4 3 3 3 3 3 3 3 3 3 4 4 3 3 3 2 2 2 1 0 -0 -1 -1 -2 -2 -2 -3 -3 -4
Wind_Speed
8 7 10 12 13 8 4 7 10 10 9 12 19 24 23 21 22 23 23 22 22 22 21 19 18 16 14 13 13 14 14 15 14 12 12 10 8 7 7 7 11 12 13 13
7 12 12 7 7 10 11 12 14 13 11 11 20 29 26 26 26 26 25 25 24 24 23 22 20 18 16 15 14 14 15 16 16 14 12 9 9 7 8 8 10 12 13 12
10 2 6 10 10 11 13 15 14 13 14 14 17 23 20 17 19 22 24 25 25 25 25 24 23 21 18 17 16 13 16 17 17 16 12 12 9 7 6 8 8 9 12 12
10 7 4 8 11 11 10 9 12 12 10 8 6 12 17 12 13 16 19 20 22 23 23 23 23 22 21 19 15 15 15 17 18 18 17 19 13 11 9 9 8 10 11 12
9 7 10 11 10 11 6 3 6 8 10 11 11 10 18 11 15 16 17 18 19 20 20 21 22 22 20 18 15 15 16 17 18 18 19 18 15 12 12 12 13 11 10 11
5 5 6 7 6 10 6 4 7 8 7 9 12 13 17 12 13 12 12 14 16 17 18 19 19 19 18 16 15 15 17 18 18 18 18 18 19 19 19 16 14 11 9 8
8 9 7 6 6 7 9 5 4 5 6 10 6 11 16 14 12 13 14 14 14 15 16 17 18 17 17 17 17 17 19 19 19 19 18 18 20 21 21 19 15 13 10 9
8 7 11 11 12 8 13 9 6 5 6 7 7 13 14 13 13 14 15 16 17 17 17 17 17 16 17 19 19 20 20 20 20 19 18 18 18 15 14 15 14 12 10 10
8 4 5 9 10 10 8 10 7 6 8 10 12 13 14 14 14 14 15 16 17 17 17 17 16 16 17 19 20 21 21 21 20 20 19 19 18 16 16 15 13 11 10 10
5 4 4 5 7 10 8 6 6 6 6 9 13 17 12 11 10 11 13 15 16 17 16 15 14 14 15 17 18 20 21 21 21 20 18 16 17 17 17 15 14 13 13 12
8 6 4 6 11 14 11 8 8 7 7 7 11 12 8 11 11 13 15 15 16 17 15 12 10 12 14 16 17 19 20 21 20 20 19 19 18 17 16 15 15 14 13 12
10 6 6 10 9 11 14 15 14 8 10 10 11 15 10 11 12 13 16 16 16 15 12 8 8 11 14 17 18 19 20 20 20 20 20 19 19 17 16 15 15 14 13 11
11 6 4 5 5 8 10 16 18 15 11 14 15 17 9 11 18 18 18 16 13 10 5 4 8 12 15 17 18 18 19 19 20 20 21 20 18 17 17 16 14 13 12 10
10 7 9 7 3 5 9 13 17 17 13 17 24 30 31 28 25 23 17 12 8 4 3 6 10 12 15 16 17 18 18 19 20 20 20 19 18 17 16 15 14 12 11 9
8 7 11 16 16 16 20 21 20 22 23 21 27 30 33 29 24 20 13 6 2 2 6 9 11 13 15 16 17 18 18 18 19 20 19 18 17 16 15 14 13 11 10 8
8 6 7 13 16 18 23 24 24 23 23 24 28 30 27 21 15 13 8 3 4 5 7 10 12 14 16 17 17 18 18 18 18 19 19 18 17 16 15 13 12 11 9 7
7 5 4 8 10 13 14 13 13 12 13 15 17 18 19 18 15 10 5 3 5 8 10 12 13 14 15 16 18 19 19 18 18 19 18 17 16 15 14 12 11 10 8 6
7 6 3 5 8 7 4 1 6 11 13 14 17 18 17 14 11 6 2 4 7 9 11 12 13 14 14 15 17 18 18 18 18 18 17 16 16 15 13 12 10 8 6 4
11 7 4 4 6 11 9 3 3 6 7 7 10 12 11 8 5 3 2 4 8 10 12 13 14 15 16 17 18 19 18 18 18 17 16 15 15 14 12 11 9 7 5 3
12 9 6 5 5 5 5 4 3 4 5 5 8 10 9 6 3 4 4 7 10 12 13 14 15 16 16 17 18 19 18 17 17 16 15 14 13 13 11 10 8 5 4 2
7 7 9 9 7 8 8 6 4 2 5 9 9 9 6 3 2 2 5 9 12 14 15 15 16 15 15 17 18 18 17 16 16 15 15 13 12 11 10 8 6 5 3 1
10 7 8 7 8 8 3 2 3 5 8 9 8 6 3 1 4 6 9 11 13 14 15 15 15 14 14 16 17 17 16 16 16 15 14 12 11 9 8 7 6 4 2 0
9 9 5 8 9 5 2 5 7 7 9 7 6 4 2 4 5 8 10 12 13 14 13 13 15 15 14 13 15 18 17 16 16 15 13 11 10 8 7 6 4 3 1 1
6 6 6 7 10 11 11 10 7 5 5 4 3 1 3 6 9 10 11 12 12 13 13 14 16 16 14 13 14 16 17 16 16 14 12 10 9 7 6 4 3 1 1 2
6 7 7 9 10 10 7 4 2 1 2 3 4 4 6 10 11 12 12 12 12 12 13 13 14 16 16 15 15 15 15 15 15 13 11 9 7 6 5 3 2 1 1 3
7 9 7 7 5 4 3 2 1 2 3 4 7 9 9 10 13 13 13 13 13 13 14 14 15 16 16 15 15 13 12 14 14 11 9 6 5 4 3 2 1 1 2 4
Wind_Direction
167 191 211 213 218 242 255 249 259 265 277 286 273 272 270 268 263 261 258 256 254 253 252 250 248 246 241 232 222 213 201 189 178 176 175 169 164 148 135 131 136 134 133 130
171 224 228 224 223 235 245 258 266 277 279 281 283 281 275 264 257 255 255 253 251 251 249 246 242 238 234 227 218 209 198 186 181 178 172 166 143 125 116 115 119 124 127 126
200 188 213 208 216 228 240 248 261 273 296 281 288 287 272 256 248 249 249 249 249 247 246 243 237 232 227 224 215 203 194 184 179 169 152 136 121 117 116 120 116 120 123 121
220 214 180 199 220 225 248 248 256 269 277 283 288 293 287 275 254 246 247 245 245 243 242 241 238 233 224 219 210 200 188 180 173 164 162 161 161 154 148 140 127 123 120 118
205 204 208 220 227 214 238 237 245 258 269 278 254 261 281 268 259 254 249 248 247 246 244 241 239 234 227 215 202 190 180 176 170 170 168 167 157 141 134 130 128 123 117 119
213 194 211 223 224 214 209 220 255 252 258 263 247 234 277 275 267 268 262 258 255 253 251 248 243 235 226 210 194 182 175 172 169 168 167 163 151 145 142 141 137 131 126 125
214 215 207 187 175 181 195 208 245 235 231 250 248 238 258 274 273 271 273 274 273 269 263 255 245 231 217 202 189 179 173 168 167 165 164 157 153 150 149 147 145 142 138 139
203 215 199 199 208 193 195 204 225 257 260 276 253 247 261 273 274 270 271 277 281 278 271 261 248 230 213 198 187 178 172 166 164 161 155 150 148 145 144 144 144 140 140 140
203 213 169 198 202 197 186 213 237 270 280 275 260 260 275 263 261 266 275 282 282 281 275 264 250 229 209 195 186 177 168 162 159 153 147 146 145 142 140 138 135 131 133 137
200 217 187 176 190 215 221 196 188 212 261 270 270 268 264 277 276 282 288 290 291 291 282 265 244 220 201 191 181 171 164 157 151 147 143 142 141 138 137 135 135 134 136 137
198 212 190 181 204 200 195 203 211 229 246 268 285 278 284 282 288 297 297 297 299 297 285 261 231 204 186 175 167 161 154 148 145 143 139 137 136 136 134 132 133 134 136 139
196 212 239 233 225 219 214 217 212 230 242 243 270 279 285 281 292 299 297 298 298 294 279 247 201 174 166 161 157 153 148 145 142 139 136 134 133 134 131 131 133 135 135 135
172 198 239 229 208 207 228 233 232 239 258 257 260 271 286 292 298 298 296 296 296 291 263 192 159 158 157 153 150 146 143 140 138 136 134 132 133 133 132 132 133 133 133 132
178 207 228 250 262 204 231 235 231 232 245 257 256 270 284 291 297 300 299 294 294 276 177 147 147 148 147 146 143 140 137 137 136 135 133 132 133 132 131 131 132 133 133 133
192 230 241 258 268 267 263 262 253 244 246 255 268 275 282 290 297 300 298 288 277 150 137 138 142 143 141 139 137 135 135 137 136 132 130 130 129 128 128 130 130 130 128 127
203 248 260 266 265 265 268 266 262 258 254 254 265 274 278 288 295 297 293 246 161 146 142 139 140 141 141 140 138 136 135 136 133 130 128 129 129 129 129 131 130 129 128 129
202 226 257 277 286 287 271 265 259 252 251 252 260 267 287 301 307 306 288 188 153 150 147 145 145 143 142 141 139 137 136 134 130 128 129 130 130 130 131 131 131 131 132 135
207 211 243 284 297 263 271 306 276 279 274 262 261 273 290 303 312 315 282 163 150 148 145 143 141 138 137 135 134 132 132 131 129 128 130 131 132 131 132 132 132 132 134 139
214 214 236 259 276 282 289 285 282 297 292 298 292 296 305 309 303 4 65 135 144 143 138 136 136 135 134 135 135 132 130 130 129 131 133 135 135 134 135 134 132 132 137 141
208 213 229 247 269 271 292 318 309 274 289 343 329 319 322 321 346 31 82 122 128 128 128 129 131 133 134 137 137 133 132 133 133 134 133 134 134 134 134 131 130 132 138 141
185 203 222 238 252 270 284 305 302 286 332 330 325 323 323 324 0 53 105 116 121 123 126 129 132 134 137 140 138 133 132 132 131 129 128 127 127 126 126 125 127 133 136 160
192 196 204 211 230 253 258 269 260 302 314 312 317 322 319 75 84 99 108 115 120 123 128 132 130 129 136 140 137 131 128 128 127 125 123 122 121 120 124 126 128 131 139 265
210 212 209 215 233 264 253 251 277 294 293 303 311 316 161 134 117 112 113 116 120 124 127 128 127 127 131 135 134 128 128 129 127 123 121 120 118 118 125 129 132 132 115 329
223 216 230 253 261 269 276 279 281 285 290 315 317 279 167 142 130 121 118 117 119 121 125 128 127 126 125 125 123 125 129 129 127 124 123 123 123 124 126 123 121 107 10 335
226 192 219 249 271 286 281 276 290 39 57 57 65 89 122 129 126 123 119 118 119 119 122 125 125 123 122 120 120 124 128 128 125 123 124 124 126 129 126 117 90 18 359 324
211 205 213 240 249 252 300 22 74 104 89 96 101 97 102 116 120 117 114 115 116 117 118 118 118 118 119 119 120 123 128 129 126 125 127 127 128 124 119 112 101 219 290 316
Height
1484 1485 1482 1480 1482 1482 1483 1482 1480 1478 1477 1478 1468 1460 1457 1457 1456 1454 1453 1453 1453 1453 1454 1456 1457 1458 1460 1462 1465 1468 1471 1473 1475 1477 1480 1482 1485 1489 1492 1496 1499 1502 1505 1507
1484 1482 1478 1481 1484 1485 1485 1485 1483 1479 1478 1478 1465 1453 1448 1446 1444 1444 1444 1443 1443 1444 1445 1446 1448 1450 1451 1454 1457 1460 1463 1466 1469 1471 1474 1477 1480 1483 1487 1491 1495 1498 1501 1504
1475 1478 1479 1482 1484 1485 1484 1484 1481 1480 1477 1473 1468 1442 1428 1426 1430 1433 1433 1433 1433 1433 1434 1436 1438 1440 1442 1445 1449 1452 1456 1459 1462 1464 1467 1470 1474 1478 1483 1487 1491 1495 1498 1501
1476 1477 1480 1481 1481 1482 1482 1481 1482 1482 1481 1472 1470 1452 1418 1420 1422 1424 1424 1423 1422 1423 1424 1426 1428 1430 1433 1436 1441 1444 1448 1451 1454 1457 1461 1464 1468 1472 1477 1482 1487 1491 1495 1498
1473 1476 1478 1478 1478 1480 1479 1481 1482 1481 1479 1476 1466 1466 1418 1414 1414 1414 1414 1415 1415 1415 1416 1417 1418 1421 1425 1428 1432 1436 1440 1444 1448 1452 1456 1460 1464 1468 1474 1479 1484 1488 1492 1495
1471 1475 1475 1475 1476 1479 1480 1482 1480 1478 1479 1475 1452 1453 1416 1402 1402 1403 1406 1407 1408 1408 1409 1409 1411 1413 1416 1420 1423 1428 1433 1437 1442 1446 1451 1455 1459 1463 1469 1475 1480 1484 1489 1492
1469 1471 1473 1475 1476 1479 1481 1482 1476 1473 1472 1457 1441 1441 1415 1399 1401 1402 1402 1402 1402 1402 1403 1402 1403 1405 1407 1411 1415 1420 1426 1431 1436 1441 1446 1451 1456 1461 1466 1472 1477 1482 1486 1490
1463 1461 1466 1469 1469 1472 1475 1475 1470 1463 1449 1438 1437 1430 1404 1397 1398 1399 1399 1398 1397 1396 1396 1395 1395 1397 1400 1403 1407 1413 1419 1425 1430 1436 1441 1447 1453 1458 1464 1470 1475 1480 1485 1488
1457 1458 1463 1465 1467 1469 1471 1472 1466 1467 1459 1454 1429 1411 1398 1394 1394 1394 1394 1393 1390 1389 1388 1387 1388 1390 1392 1396 1401 1407 1413 1419 1425 1431 1437 1443 1450 1456 1462 1468 1474 1479 1484 1487
1455 1458 1460 1464 1468 1468 1465 1465 1469 1471 1460 1442 1416 1403 1393 1384 1386 1387 1388 1386 1384 1382 1379 1379 1380 1383 1386 1391 1396 1402 1409 1414 1420 1427 1434 1440 1447 1454 1461 1467 1473 1478 1482 1485
1455 1459 1459 1462 1461 1458 1465 1467 1463 1458 1452 1444 1420 1394 1379 1381 1382 1383 1383 1381 1379 1376 1372 1372 1374 1377 1382 1387 1393 1398 1405 1411 1418 1425 1432 1439 1446 1453 1460 1467 1472 1477 1481 1483
1453 1456 1454 1451 1450 1452 1453 1452 1454 1456 1446 1440 1427 1396 1379 1379 1379 1381 1380 1377 1374 1370 1367 1367 1370 1374 1379 1384 1390 1396 1402 1409 1416 1423 1431 1438 1446 1453 1460 1466 1471 1476 1479 1481
1450 1455 1451 1441 1450 1453 1451 1447 1446 1446 1444 1434 1426 1396 1377 1379 1378 1378 1376 1372 1369 1366 1365 1366 1369 1373 1378 1384 1389 1395 1401 1408 1416 1423 1430 1438 1446 1453 1460 1466 1470 1474 1477 1479
1448 1448 1444 1435 1430 1438 1441 1439 1439 1442 1437 1423 1409 1390 1377 1376 1374 1372 1370 1368 1366 1364 1365 1366 1370 1374 1379 1384 1389 1395 1401 1409 1416 1424 1431 1439 1447 1454 1460 1465 1469 1473 1475 1477
1446 1444 1441 1436 1434 1434 1431 1428 1427 1428 1424 1418 1399 1391 1377 1373 1372 1370 1367 1365 1364 1364 1366 1368 1372 1376 1380 1385 1390 1396 1403 1410 1418 1425 1433 1440 1448 1454 1460 1465 1468 1471 1473 1475
1442 1440 1437 1432 1428 1425 1421 1415 1413 1411 1409 1405 1398 1387 1374 1371 1370 1367 1364 1364 1364 1365 1368 1371 1374 1378 1381 1386 1391 1397 1405 1412 1420 1427 1435 1442 1449 1455 1460 1464 1467 1470 1472 1473
1436 1437 1435 1425 1419 1418 1410 1401 1401 1400 1396 1395 1390 1379 1371 1368 1365 1364 1363 1364 1364 1367 1369 1373 1376 1379 1384 1388 1394 1400 1407 1415 1423 1430 1438 1444 1450 1455 1460 1463 1466 1468 1470 1471
1432 1433 1433 1425 1420 1414 1397 1395 1396 1394 1389 1385 1381 1375 1371 1368 1366 1364 1363 1364 1365 1368 1371 1374 1378 1382 1386 1391 1397 1404 1412 1419 1426 1433 1440 1446 1451 1455 1459 1462 1465 1467 1468 1469
1428 1430 1430 1425 1416 1403 1393 1393 1394 1393 1385 1379 1375 1371 1369 1368 1366 1365 1365 1366 1367 1370 1373 1376 1380 1384 1389 1395 1401 1408 1415 1423 1430 1436 1442 1447 1452 1456 1459 1462 1464 1466 1467 1467
1425 1428 1429 1423 1418 1405 1391 1391 1391 1393 1383 1377 1375 1372 1370 1368 1364 1367 1368 1368 1370 1373 1376 1379 1383 1388 1394 1400 1406 1413 1419 1426 1433 1439 1444 1449 1453 1456 1459 1461 1463 1464 1465 1464
1421 1424 1424 1421 1415 1399 1390 1389 1390 1388 1383 1378 1376 1373 1372 1370 1370 1372 1370 1372 1374 1376 1379 1383 1388 1393 1398 1404 1411 1417 1423 1429 1435 1441 1445 1449 1453 1456 1459 1461 1462 1463 1462 1462
1410 1412 1413 1412 1410 1400 1387 1388 1387 1383 1380 1378 1375 1374 1372 1372 1371 1372 1373 1375 1377 1380 1383 1388 1392 1397 1403 1409 1415 1420 1426 1432 1437 1442 1446 1450 1454 1456 1458 1460 1461 1461 1460 1459
1403 1401 1399 1399 1394 1386 1386 1385 1383 1382 1379 1376 1374 1373 1372 1372 1372 1373 1375 1378 1380 1383 1387 1391 1396 1401 1407 1413 1419 1423 1428 1434 1439 1444 1447 1451 1454 1456 1458 1459 1459 1458 1457 1456
1398 1399 1398 1394 1386 1384 1383 1381 1380 1378 1376 1374 1372 1371 1371 1372 1373 1375 1377 1380 1383 1387 1390 1395 1399 1404 1410 1416 1422 1427 1432 1437 1441 1445 1448 1451 1454 1456 1457 1457 1457 1456 1454 1452
1391 1394 1393 1389 1384 1381 1378 1378 1377 1376 1374 1373 1371 1371 1371 1372 1374 1376 1379 1382 1386 1390 1394 1398 1402 1407 1412 1418 1424 1430 1435 1439 1443 1446 1449 1452 1454 1455 1455 1455 1455 1453 1451 1449
1386 1387 1385 1381 1379 1380 1378 1377 1376 1375 1374 1373 1373 1372 1373 1374 1376 1379 1382 1386 1389 1393 1397 1401 1406 1411 1416 1422 1428 1433 1438 1442 1445 1447 1450 1452 1453 1454 1454 1453 1452 1450 1448 1445